Regional Weather Roundup
Issued by NWS Green Bay, WI

Home | Current Version | Previous Version | Text Only | Print | Product List | Glossary On
Versions: 1 2 3 4 5 6 7 8 9 10 11 12 13 14 15 16 17 18 19 20 21 22 23 24 25 26 27 28 29 30 31 32 33 34 35 36 37 38 39 40 41 42 43 44 45 46 47 48 49 50
000
ASUS43 KGRB 221311
RWRGRB

NORTH-CENTRAL AND NORTHEAST WISCONSIN REGIONAL WEATHER ROUNDUP
NATIONAL WEATHER SERVICE GREEN BAY WI
700 AM CST MON JAN 22 2018

WIZ005-009-010>012-018-019-221400-
NORTH CENTRAL WISCONSIN

CITY           SKY/WX    TMP DP  RH WIND       PRES   REMARKS
IRONWOOD       FLURRIES  27  26  96 NE12      29.95F
MANITOWISH WTR MIX PCPN  28  28 100 NE9G21    29.90F
ARBOR VITAE    CLOUDY    32  30  93 NE9G18    29.87F
EAGLE RIVER    CLOUDY    29  29  99 NE13G18   29.89S
LAND O LAKES   CLOUDY    29  28  97 NE7       29.93S
RHINELANDER    CLOUDY    31  29  92 NE13      29.86F
PHILLIPS       CLOUDY    30  29  97 NE14G21   29.85F
ANTIGO         CLOUDY    31  30  96 NE18G28   29.82F
TOMAHAWK       CLOUDY    31  28  89 NE10G18   29.84F
MERRILL        CLOUDY    33  31  92 E14G20    29.83F
$$

WIZ013-073-221400-
NORTHEAST WISCONSIN

CITY           SKY/WX    TMP DP  RH WIND       PRES   REMARKS
IRON MOUNTAIN  CLOUDY    32  29  88 NE10G17   29.91F
MARINETTE      MIX PCPN  34  32  93 NE23G30   29.89F VSB 3/4
OCONTO         CLOUDY    33  32  96 NE12G17   29.86F
$$

WIZ017-030-035>037-045-221400-
CENTRAL WISCONSIN

CITY           SKY/WX    TMP DP  RH WIND       PRES   REMARKS
MEDFORD        CLOUDY    32  29  89 NE16      29.78F
WAUSAU         LGT SNOW  33  30  88 NE15      29.78S FOG
MOSINEE        LGT SNOW  34  32  93 NE14G25   29.78F
MARSHFIELD     LGT RAIN  34  32  92 NE21G26   29.72F FOG
WISC RAPIDS    RAIN      34  33  96 E15G28    29.72F FOG
STEVENS POINT  LGT RAIN  32  32 100 NE20G26   29.75F
WAUPACA        DRIZZLE   36  34  92 N13G20    29.77F
SHAWANO        CLOUDY    35  32  90 NE15G22   29.83F FOG
CLINTONVILLE   LGT RAIN  34  32  93 NE17G28   29.79F
WAUTOMA        LGT RAIN  34  32  92 NE22G30   29.71F
$$

WIZ038-039-048-051-221400-
FOX VALLEY

CITY           SKY/WX    TMP DP  RH WIND       PRES   REMARKS
NWS GREEN BAY  LGT RAIN  33  31  92 NE29G39   29.79F FOG
APPLETON       LGT RAIN  34  34 100 NE23      29.74F
OSHKOSH        CLOUDY    34  33  96 NE17      29.73F FOG
FOND DU LAC    CLOUDY    37  34  89 NE18G26   29.71F
$$

WIZ022-050-052-221400-
EAST CENTRAL WISCONSIN

CITY           SKY/WX    TMP DP  RH WIND       PRES   REMARKS
EPHRAIM        CLOUDY    33  32  99 NE10G24   29.88F FOG
WASHINGTON ISL NOT AVBL
STURGEON BAY   MIX PCPN  34  33  96 NE16      29.85F FOG
MANITOWOC      NOT AVBL
SHEBOYGAN      LGT RAIN  36  36 100 NE18G25   29.74F FOG
$$

LMZ563-521-522-541>543-221400-
LAKESHORE

STATION/POSITION TIME  TEMP    WIND        PRES    VSBY  WAVE
                       AIR SEA DIR/SP/G                  HT/PER
                 (UTC) (F)     (DEG/KT/KT) (MB)    (MI)  (FT/S)
SHEBOYGAN LKSHOR 1300   36      40/ 19/ 20 1007.8F
KEWAUNEE LKSHORE 1242   35      30/ 16/ 19 1009.4F
NORTHPORT PIER   1240   34      60/  2/  4 1013.2S
SISTER BAY LKSHO 1220   34      10/ 11/ 18   N/A
MENOMINEE LKSHOR 1236   32      20/ 26/ 28 1011.8F
$$



USA.gov is the U.S. government's official web portal to all federal, state and local government web resources and services.